Location: Bruderhein
(53.8035°N, 112.9265°W)
Time: 01:44:09
(UTC+00:00)

KKS-1 - Pass Details

Date: 01 April 2023
Orbit: 633 x 644 km, 98.2° (Epoch: 31 May)

Event Time Altitude Azimuth Distance (km) Brightness Sun altitude
Rises 06:02:11 0° 17° (NNE) 2,946 ? -28.5°
Reaches altitude 10° 06:04:26 10° 21° (NNE) 2,032 ? -28.7°
Enters shadow 06:06:45 30° 33° (NNE) 1,158 ? -28.8°
